CW6338 Weather Reports


Display with metric or nautical units.
time (UTC)temp
F
wind
direction
speed
MPH
gust
MPH
rain 1hr
in
rain 24hr
in
rain mn
in
humidity
%
barometer
mb
20260510043817 62 315 4.0 6.0 0.00 0.00 0.00 40 1014.3
20260510042817 62 315 4.0 8.0 0.00 0.00 0.00 41 1014.2
20260510041837 63 315 3.0 5.0 0.00 0.00 0.00 43 1014.1
20260510040817 63 315 4.0 8.0 0.00 0.00 0.00 44 1014.0
20260510035837 63 315 4.0 9.0 0.00 0.00 0.00 46 1013.9
20260510034817 63 315 4.0 6.0 0.00 0.00 0.00 47 1013.8
20260510033818 63 315 3.0 4.0 0.00 0.00 0.00 48 1013.6
20260510032817 64 315 3.0 4.0 0.00 0.00 0.00 48 1013.5
20260510031817 64 293 3.0 3.0 0.00 0.00 0.00 47 1013.2
20260510030817 64 315 5.0 7.0 0.00 0.00 0.00 48 1012.9
20260510025817 64 315 3.0 5.0 0.00 0.00 0.00 48 1012.7
20260510024817 64 315 3.0 6.0 0.00 0.00 0.00 48 1012.4
20260510023817 64 293 5.0 8.0 0.00 0.00 0.00 48 1012.2
20260510022817 64 293 4.0 4.0 0.00 0.00 0.00 49 1012.1
20260510021817 64 293 4.0 7.0 0.00 0.00 0.00 48 1011.9
20260510020817 64 293 3.0 4.0 0.00 0.00 0.00 48 1011.6
20260510015818 65 293 2.0 3.0 0.00 0.00 0.00 48 1011.5
20260510014817 65 293 1.0 1.0 0.00 0.00 0.00 48 1011.1
20260510013817 65 270 1.0 2.0 0.00 0.00 0.00 47 1010.9
20260510012836 65 270 3.0 4.0 0.00 0.00 0.00 46 1010.7
20260510011817 66 293 4.0 7.0 0.00 0.00 0.00 45 1010.4
20260510010837 66 315 4.0 5.0 0.00 0.00 0.00 44 1010.3
20260510005816 67 293 4.0 5.0 0.00 0.00 0.00 44 1010.1
20260510004817 67 315 6.0 10.0 0.00 0.00 0.00 43 1010.0
20260510003816 68 315 9.0 13.0 0.00 0.00 0.00 42 1009.8
20260510002816 68 293 11.0 13.0 0.00 0.00 0.00 41 1009.7
20260510001816 68 315 5.0 9.0 0.00 0.00 0.00 40 1009.5
20260510000816 68 293 9.0 14.0 0.00 0.00 0.00 40 1009.5
20260509235816 69 293 12.0 16.0 0.00 0.00 0.00 40 1009.5
20260509234836 70 315 10.0 13.0 0.00 0.00 0.00 42 1009.3
20260509233816 70 315 11.0 17.0 0.00 0.00 0.00 43 1009.4
20260509232816 70 315 7.0 10.0 0.00 0.00 0.00 43 1009.2
20260509231816 71 315 8.0 14.0 0.00 0.00 0.00 41 1009.2
20260509230816 71 0 12.0 18.0 0.00 0.00 0.00 40 1008.9
20260509225816 73 315 11.0 16.0 0.00 0.00 0.00 38 1008.8
20260509224816 75 315 12.0 19.0 0.00 0.00 0.00 34 1008.6
20260509223816 76 338 10.0 14.0 0.00 0.00 0.00 32 1008.4
20260509222816 76 315 15.0 17.0 0.00 0.00 0.00 28 1008.2
20260509221816 77 315 9.0 14.0 0.00 0.00 0.00 28 1008.2
20260509220816 78 315 8.0 10.0 0.00 0.00 0.00 28 1008.1
20260509215816 78 293 9.0 12.0 0.00 0.00 0.00 26 1008.0
20260509214816 78 270 7.0 10.0 0.00 0.00 0.00 26 1008.0
20260509213816 77 293 11.0 15.0 0.00 0.00 0.00 26 1008.0
20260509212836 78 293 10.0 11.0 0.00 0.00 0.00 26 1008.1
20260509211816 78 293 10.0 14.0 0.00 0.00 0.00 26 1007.9
20260509210836 79 293 15.0 20.0 0.00 0.00 0.00 25 1008.1
20260509205817 79 293 13.0 20.0 0.00 0.00 0.00 25 1008.1
20260509204816 78 293 5.0 8.0 0.00 0.00 0.00 25 1008.0
20260509203816 79 293 10.0 14.0 0.00 0.00 0.00 25 1008.1
20260509202816 79 248 11.0 16.0 0.00 0.00 0.00 25 1008.0
20260509201816 78 270 5.0 8.0 0.00 0.00 0.00 26 1008.0
20260509200816 78 270 9.0 11.0 0.00 0.00 0.00 24 1008.2
20260509195816 78 293 6.0 9.0 0.00 0.00 0.00 27 1008.2
20260509194817 78 293 12.0 15.0 0.00 0.00 0.00 25 1008.2
20260509193816 78 293 12.0 18.0 0.00 0.00 0.00 25 1008.3
20260509192816 79 293 12.0 16.0 0.00 0.00 0.00 25 1008.3
20260509191816 78 270 5.0 8.0 0.00 0.00 0.00 26 1008.3
20260509190836 78 248 11.0 16.0 0.00 0.00 0.00 26 1008.3
20260509185816 78 315 16.0 21.0 0.00 0.00 0.00 25 1008.3
20260509184816 78 293 15.0 19.0 0.00 0.00 0.00 28 1008.3
20260509183817 77 293 10.0 13.0 0.00 0.00 0.00 29 1008.3
20260509182816 76 293 8.0 10.0 0.00 0.00 0.00 28 1008.4
20260509181815 76 270 8.0 13.0 0.00 0.00 0.00 31 1008.4
20260509180816 76 293 9.0 12.0 0.00 0.00 0.00 31 1008.4
20260509175816 76 293 13.0 20.0 0.00 0.00 0.00 32 1008.5
20260509174816 75 270 4.0 9.0 0.00 0.00 0.00 33 1008.5
20260509173815 75 270 7.0 10.0 0.00 0.00 0.00 35 1008.4
20260509172836 74 293 8.0 14.0 0.00 0.00 0.00 38 1008.4
20260509171816 74 270 8.0 10.0 0.00 0.00 0.00 43 1008.4
20260509170836 73 293 6.0 10.0 0.00 0.00 0.00 44 1008.3
20260509165815 72 270 9.0 13.0 0.00 0.00 0.00 45 1008.2
20260509164815 72 293 9.0 12.0 0.00 0.00 0.00 46 1008.2
20260509163815 71 225 6.0 10.0 0.00 0.00 0.00 49 1008.1
20260509162815 70 248 4.0 6.0 0.00 0.00 0.00 53 1008.2
20260509161835 69 225 2.0 4.0 0.00 0.00 0.00 55 1008.0
20260509160836 68 270 3.0 6.0 0.00 0.00 0.00 57 1008.0
20260509155816 68 225 2.0 7.0 0.00 0.00 0.00 59 1008.0
20260509154815 67 248 4.0 6.0 0.00 0.00 0.00 63 1007.9
20260509153836 67 293 4.0 6.0 0.00 0.00 0.00 65 1008.0
20260509152837 66 248 5.0 8.0 0.00 0.00 0.00 67 1007.9
20260509151819 65 270 3.0 6.0 0.00 0.00 0.00 66 1007.9
20260509150817 64 225 2.0 4.0 0.00 0.00 0.00 72 1007.8
20260509145817 64 248 4.0 7.0 0.00 0.00 0.00 72 1007.8
20260509144817 63 293 6.0 9.0 0.00 0.00 0.00 73 1007.8
20260509143817 62 248 4.0 9.0 0.00 0.00 0.00 77 1007.9
20260509142817 61 248 4.0 7.0 0.00 0.00 0.00 79 1007.8
20260509141817 60 270 3.0 4.0 0.00 0.00 0.00 80 1007.8
20260509140817 60 248 3.0 5.0 0.00 0.00 0.00 83 1007.8
20260509135817 59 293 4.0 7.0 0.00 0.00 0.00 85 1007.8
20260509134817 58 225 5.0 10.0 0.00 0.00 0.00 87 1007.8
20260509133817 58 248 6.0 10.0 0.00 0.00 0.00 89 1007.6
20260509132817 57 293 3.0 6.0 0.00 0.00 0.00 92 1007.8
20260509131857 56 248 4.0 7.0 0.00 0.00 0.00 93 1007.7
20260509130837 54 225 4.0 6.0 0.00 0.00 0.00 93 1007.6
20260509125817 53 203 2.0 5.0 0.00 0.00 0.00 93 1007.5
20260509124835 52 225 3.0 4.0 0.00 0.00 0.00 93 1007.5
20260509123917 52 225 5.0 8.0 0.00 0.00 0.00 93 1007.5
20260509122917 52 225 3.0 6.0 0.00 0.00 0.00 93 1007.3
20260509121917 51 248 4.0 8.0 0.00 0.00 0.00 93 1007.3
20260509120917 51 225 1.0 2.0 0.00 0.00 0.00 93 1007.2
20260509115917 51 180 2.0 2.0 0.00 0.00 0.00 93 1007.2
20260509114917 50 203 1.0 5.0 0.00 0.00 0.00 93 1007.1
20260509113918 50 225 2.0 4.0 0.00 0.00 0.00 93 1007.0
20260509112957 50 203 3.0 5.0 0.00 0.00 0.00 93 1006.8
20260509111917 50 225 5.0 12.0 0.00 0.00 0.00 93 1006.7
20260509110916 50 270 4.0 6.0 0.00 0.00 0.00 93 1006.7
20260509105917 50 180 4.0 8.0 0.00 0.00 0.00 93 1006.7
20260509104937 50 203 3.0 6.0 0.00 0.00 0.00 93 1006.7
20260509103957 50 203 4.0 6.0 0.00 0.00 0.00 93 1006.6
20260509102936 50 248 1.0 4.0 0.00 0.00 0.00 93 1006.7
20260509101916 50 225 4.0 6.0 0.00 0.00 0.00 93 1006.7
20260509100916 50 180 4.0 8.0 0.00 0.00 0.00 93 1006.6
20260509095916 51 180 4.0 7.0 0.00 0.00 0.00 93 1006.6
20260509094916 51 203 4.0 7.0 0.00 0.00 0.00 93 1006.7
20260509093916 51 203 5.0 8.0 0.00 0.00 0.00 93 1006.7
20260509092916 51 203 4.0 6.0 0.00 0.00 0.00 93 1006.6
20260509091916 51 225 3.0 5.0 0.00 0.00 0.00 93 1006.9
20260509090936 51 225 3.0 5.0 0.00 0.00 0.00 93 1006.9
20260509085916 51 203 2.0 4.0 0.00 0.00 0.00 93 1006.8
20260509084936 51 203 3.0 5.0 0.00 0.00 0.00 93 1006.8
20260509083916 51 180 3.0 5.0 0.00 0.00 0.00 93 1006.7
20260509082936 51 225 3.0 5.0 0.00 0.00 0.00 93 1006.9
20260509081916 52 225 4.0 6.0 0.00 0.00 0.00 93 1006.8
20260509080916 52 203 3.0 6.0 0.00 0.00 0.00 93 1006.6
20260509075916 52 225 4.0 6.0 0.00 0.00 0.00 93 1006.7
20260509074916 52 225 4.0 8.0 0.00 0.00 0.00 93 1006.8
20260509073916 52 248 5.0 7.0 0.00 0.00 0.00 93 1006.6
20260509072936 52 180 3.0 6.0 0.00 0.00 0.00 93 1006.5
20260509071916 52 180 4.0 6.0 0.00 0.00 0.00 93 1006.6
20260509070916 52 203 3.0 7.0 0.00 0.00 0.00 92 1006.6
20260509065916 52 158 5.0 8.0 0.00 0.00 0.00 92 1006.8
20260509064936 52 180 3.0 7.0 0.00 0.00 0.00 92 1006.9
20260509063916 52 203 3.0 6.0 0.00 0.00 0.00 92 1007.1
20260509062916 52 203 3.0 6.0 0.00 0.00 0.00 92 1007.2
20260509061916 52 203 5.0 7.0 0.00 0.00 0.00 92 1007.4
20260509060916 53 225 3.0 6.0 0.00 0.00 0.00 92 1007.4
20260509055936 53 158 2.0 5.0 0.00 0.00 0.00 92 1007.5
20260509054956 53 158 3.0 4.0 0.00 0.00 0.00 92 1007.6
20260509053916 53 158 4.0 7.0 0.00 0.00 0.00 92 1007.6
20260509052916 53 248 3.0 7.0 0.00 0.00 0.00 92 1007.7
20260509051916 53 203 3.0 7.0 0.00 0.00 0.00 92 1007.8
20260509050916 54 180 3.0 5.0 0.00 0.00 0.00 92 1007.9
20260509045956 54 180 3.0 7.0 0.00 0.00 0.00 91 1008.1
20260509044916 54 225 4.0 7.0 0.00 0.00 0.00 91 1008.2
20260509043916 54 225 3.0 6.0 0.00 0.00 0.00 91 1008.2